This demonstration page uses our WeatherBlox Daily Observations layout. Learn more.

36.17497, -115.13722

Hourly Observations for October 23, 2018

Temp ( °F °C ) Dew Point ( °F °C ) Humidity (%) Winds ( mph kmh ) Pressure ( in mb ) Visibility ( mi km ) Precip ( " mm )
12:53 am 00:53 Clear 61 16.1 49 9.4 65 65 NNW 6 9 29.97 1015 10 16.09344 0 0
1:53 am 01:53 Clear 61 16.1 49 9.4 65 65 NW 5 7 29.94 1014 10 16.09344 0 0
2:53 am 02:53 Clear 59 15 48 8.9 67 67 Calm 29.97 1015 10 16.09344 0 0
3:53 am 03:53 Clear 57 13.9 46 7.8 67 67 NNW 5 7 29.97 1015 10 16.09344 0 0
4:53 am 04:53 Clear 59 15 46 7.8 62 62 WNW 7 11 29.97 1015 10 16.09344 0 0
5:53 am 05:53 Clear 58 14.4 47 8.3 67 67 NW 7 11 29.97 1015 10 16.09344 0 0
6:53 am 06:53 Clear 61 16.1 44 6.7 54 54 NNW 8 13 29.97 1015 10 16.09344 0 0
7:53 am 07:53 Sunny 62 16.7 43 6.1 50 50 NNW 9 15 30 1016 10 16.09344 0 0
8:53 am 08:53 Sunny 62 16.7 45 7.2 54 54 SSE 5 7 30 1016 10 16.09344 0 0
9:53 am 09:53 Sunny 70 21.1 46 7.8 42 42 N 7 11 30 1016 10 16.09344 0 0
10:53 am 10:53 Sunny 72 22.2 46 7.8 40 40 N 5 7 30 1016 10 16.09344 0 0
11:53 am 11:53 Sunny 73 22.8 44 6.7 35 35 Calm 29.97 1015 10 16.09344 0 0
12:53 pm 12:53 Sunny 75 23.9 44 6.7 33 33 Calm 29.94 1014 10 16.09344 0 0
1:53 pm 13:53 Sunny 78 25.6 45 7.2 31 31 E 6 9 29.91 1013 10 16.09344 0 0
2:53 pm 14:53 Sunny 78 25.6 42 5.6 28 28 N 3 6 29.91 1013 10 16.09344 0 0
3:53 pm 15:53 Sunny 78 25.6 41 5 27 27 SE 5 7 29.88 1012 10 16.09344 0 0
4:53 pm 16:53 Sunny 78 25.6 37 2.8 23 23 SE 7 11 29.88 1012 10 16.09344 0 0
5:53 pm 17:53 Sunny 76 24.4 36 2.2 23 23 SE 5 7 29.88 1012 10 16.09344 0 0
6:53 pm 18:53 Clear 74 23.3 37 2.8 26 26 Calm 29.88 1012 10 16.09344 0 0
7:53 pm 19:53 Clear 71 21.7 40 4.4 32 32 Calm 29.91 1013 10 16.09344 0 0
8:53 pm 20:53 Clear 68 20 41 5 38 38 W 5 7 29.91 1013 10 16.09344 0 0
9:53 pm 21:53 Clear 66 18.9 41 5 40 40 NW 6 9 29.94 1014 10 16.09344 0 0
10:53 pm 22:53 Clear 67 19.4 37 2.8 33 33 NNW 9 15 29.94 1014 10 16.09344 0 0
11:53 pm 23:53 Clear 64 17.8 37 2.8 37 37 NW 8 13 29.94 1014 10 16.09344 0 0

Powered by AerisWeather